Weather History for KGBG - February, 2012

Change the Weather History Date:

Sunday, February 12, 2012

  Actual Average Record
Temperature  
Mean Temperature 25 °F -  
Max Temperature 36 °F 34 °F 65 °F (1990)
Min Temperature 14 °F 16 °F -11 °F (1988)
Degree Days  
Heating Degree Days 40    
Moisture  
Dew Point 3 °F    
Average Humidity 47    
Maximum Humidity 73    
Minimum Humidity 17    
Precipitation  
Precipitation 0.00 in - - ()
Sea Level Pressure  
Sea Level Pressure 30.38 in    
Wind  
Wind Speed 11 mph (West)    
Max Wind Speed 18 mph    
Max Gust Speed 24 mph    
Visibility 10 miles    
Events      
Averages and records for this station are not official NWS values.
T = Trace of Precipitation, MM = Missing Value Source: NWS Daily Summary

Daily Weather History Graph

Daily Weather History Graph

Search for Another Location

Airport or City:

Trip Planner

Search our weather history database for the weather conditions in past years. The results will help you decide how hot, cold, wet, or windy it might be!

Date:

Astronomy

Feb. 12, 2012 Rise Set
Actual Time 7:00 AM CST 5:32 PM CST
Civil Twilight 6:32 AM CST 6:00 PM CST
Nautical Twilight 5:59 AM CST 6:32 PM CST
Astronomical Twilight 5:27 AM CST 7:04 PM CST
Moon 11:33 PM CST (2/12) 9:15 AM CST (2/12)
Length of Visible Light 11h 28m
Length of Day
10h 31m
Waning Gibbous, 72% of the Moon is Illuminated
Feb 12
Waning Gibbous
Feb 14
Last Quarter
Feb 21
New
Feb 29
First Quarter
Mar 8
Full

Hourly Weather History & Observations

Time (CST) Temp. Windchill Dew Point Humidity Pressure Visibility Wind Dir Wind Speed Gust Speed Precip Events Conditions
12:15 AM 17.6 °F 3.2 °F 7.3 °F 64% 30.46 in 10.0 mi West 15.0 mph 19.6 mph N/A   Clear
12:35 AM 17.4 °F 4.1 °F 6.8 °F 63% 30.46 in 10.0 mi West 12.7 mph - N/A   Clear
12:55 AM 17.2 °F 3.3 °F 6.8 °F 64% 30.45 in 10.0 mi West 13.8 mph 19.6 mph N/A   Clear
1:15 AM 17.1 °F 4.3 °F 6.6 °F 64% 30.44 in 10.0 mi West 11.5 mph - N/A   Clear
1:35 AM 16.5 °F 4.3 °F 6.6 °F 65% 30.44 in 10.0 mi West 10.4 mph - N/A   Clear
1:55 AM 16.5 °F 4.3 °F 5.9 °F 63% 30.44 in 10.0 mi WNW 10.4 mph - N/A   Clear
2:15 AM 16.7 °F 3.8 °F 5.0 °F 60% 30.43 in 10.0 mi West 11.5 mph 17.3 mph N/A   Clear
2:35 AM 15.8 °F 3.4 °F 5.9 °F 65% 30.44 in 10.0 mi West 10.4 mph - N/A   Clear
2:55 AM 16.3 °F 3.4 °F 5.7 °F 63% 30.44 in 10.0 mi WNW 11.5 mph - N/A   Clear
3:15 AM 16.3 °F 4.9 °F 5.4 °F 62% 30.44 in 10.0 mi West 9.2 mph - N/A   Clear
3:35 AM 16.0 °F 3.6 °F 5.0 °F 62% 30.44 in 10.0 mi West 10.4 mph - N/A   Clear
3:55 AM 16.0 °F 2.9 °F 5.0 °F 62% 30.44 in 10.0 mi West 11.5 mph - N/A   Clear
4:15 AM 16.2 °F 3.2 °F 4.8 °F 61% 30.44 in 10.0 mi West 11.5 mph - N/A   Clear
4:35 AM 15.8 °F 3.4 °F 5.0 °F 62% 30.45 in 10.0 mi West 10.4 mph - N/A   Clear
4:55 AM 15.4 °F 3.0 °F 5.2 °F 64% 30.45 in 10.0 mi West 10.4 mph - N/A   Clear
5:15 AM 15.4 °F 3.0 °F 5.0 °F 63% 30.46 in 10.0 mi West 10.4 mph - N/A   Clear
5:35 AM 15.4 °F 1.0 °F 4.8 °F 63% 30.46 in 10.0 mi West 13.8 mph - N/A   Clear
5:55 AM 15.3 °F 0.2 °F 4.6 °F 63% 30.46 in 10.0 mi West 15.0 mph - N/A   Clear
6:15 AM 14.9 °F 0.9 °F 4.1 °F 62% 30.46 in 10.0 mi West 12.7 mph - N/A   Clear
6:35 AM 14.7 °F 1.4 °F 4.1 °F 63% 30.46 in 10.0 mi West 11.5 mph - N/A   Clear
6:55 AM 14.5 °F -0.2 °F 4.5 °F 64% 30.47 in 10.0 mi West 13.8 mph - N/A   Clear
7:15 AM 14.5 °F -0.2 °F 4.3 °F 64% 30.47 in 10.0 mi West 13.8 mph - N/A   Clear
7:35 AM 15.6 °F 0.6 °F 4.1 °F 60% 30.47 in 10.0 mi West 15.0 mph 19.6 mph N/A   Clear
7:55 AM 16.5 °F 1.8 °F 4.1 °F 58% 30.47 in 10.0 mi West 15.0 mph 20.7 mph N/A   Clear
8:15 AM 17.8 °F 2.4 °F 3.6 °F 54% 30.48 in 10.0 mi West 17.3 mph - N/A   Clear
8:35 AM 18.7 °F 3.6 °F 3.4 °F 51% 30.47 in 10.0 mi West 17.3 mph - N/A   Clear
8:55 AM 19.9 °F 4.8 °F 3.6 °F 49% 30.48 in 10.0 mi West 18.4 mph 23.0 mph N/A   Clear
9:15 AM 21.2 °F 7.3 °F 2.5 °F 44% 30.47 in 10.0 mi West 16.1 mph 21.9 mph N/A   Clear
9:35 AM 22.8 °F 9.4 °F 1.9 °F 41% 30.47 in 10.0 mi WNW 16.1 mph 24.2 mph N/A   Clear
9:55 AM 24.4 °F 11.9 °F 0.9 °F 36% 30.47 in 10.0 mi WNW 15.0 mph 19.6 mph N/A   Clear
10:15 AM 25.2 °F 13.3 °F 1.4 °F 36% 30.47 in 10.0 mi WNW 13.8 mph 19.6 mph N/A   Clear
10:35 AM 26.1 °F 13.6 °F 0.5 °F 33% 30.46 in 10.0 mi West 16.1 mph - N/A   Clear
10:55 AM 27.1 °F 15.4 °F -0.8 °F 30% 30.45 in 10.0 mi WNW 15.0 mph 21.9 mph N/A   Clear
11:15 AM 28.4 °F 18.0 °F -1.3 °F 28% 30.44 in 10.0 mi WNW 12.7 mph 21.9 mph N/A   Clear
11:35 AM 30.2 °F 19.8 °F -2.7 °F 24% 30.43 in 10.0 mi WNW 13.8 mph 21.9 mph N/A   Clear
11:55 AM 31.1 °F 20.9 °F -2.2 °F 24% 30.42 in 10.0 mi West 13.8 mph - N/A   Clear
12:15 PM 31.8 °F 21.8 °F -3.1 °F 22% 30.41 in 10.0 mi West 13.8 mph 18.4 mph N/A   Clear
12:35 PM 32.9 °F 23.7 °F -2.6 °F 22% 30.40 in 10.0 mi WNW 12.7 mph 18.4 mph N/A   Clear
12:55 PM 33.8 °F 24.3 °F -3.8 °F 20% 30.39 in 10.0 mi WNW 13.8 mph - N/A   Clear
1:15 PM 34.7 °F 24.7 °F -2.6 °F 20% 30.38 in 10.0 mi West 16.1 mph - N/A   Clear
1:35 PM 35.1 °F 25.9 °F -3.8 °F 19% 30.37 in 10.0 mi West 13.8 mph 18.4 mph N/A   Clear
1:55 PM 35.8 °F 27.3 °F -2.7 °F 19% 30.36 in 10.0 mi WSW 12.7 mph 17.3 mph N/A   Clear
2:15 PM 35.8 °F 27.3 °F -5.3 °F 17% 30.36 in 10.0 mi West 12.7 mph 16.1 mph N/A   Clear
2:35 PM 36.5 °F 28.7 °F -3.3 °F 18% 30.35 in 10.0 mi West 11.5 mph 19.6 mph N/A   Clear
2:55 PM 36.9 °F 28.7 °F -4.4 °F 17% 30.35 in 10.0 mi WSW 12.7 mph - N/A   Clear
3:15 PM 36.5 °F 29.7 °F -3.6 °F 18% 30.34 in 10.0 mi West 9.2 mph - N/A   Clear
3:35 PM 36.9 °F 29.6 °F -2.2 °F 19% 30.34 in 10.0 mi SW 10.4 mph 17.3 mph N/A   Clear
3:55 PM 36.9 °F 28.2 °F -2.0 °F 19% 30.34 in 10.0 mi West 13.8 mph 17.3 mph N/A   Clear
4:15 PM 36.5 °F 27.0 °F -0.6 °F 21% 30.33 in 10.0 mi WSW 16.1 mph 19.6 mph N/A   Clear
4:35 PM 35.6 °F 26.2 °F -0.8 °F 21% 30.32 in 10.0 mi WSW 15.0 mph - N/A   Clear
4:55 PM 34.7 °F 25.9 °F -0.6 °F 22% 30.32 in 10.0 mi WSW 12.7 mph - N/A   Clear
5:15 PM 33.8 °F 25.8 °F 0.9 °F 25% 30.31 in 10.0 mi WSW 10.4 mph - N/A   Clear
5:35 PM 31.5 °F 24.2 °F 3.0 °F 30% 30.31 in 10.0 mi WSW 8.1 mph - N/A   Clear
5:55 PM 28.9 °F 22.8 °F 5.5 °F 37% 30.31 in 10.0 mi West 5.8 mph - N/A   Clear
6:15 PM 27.5 °F 21.1 °F 5.5 °F 39% 30.31 in 10.0 mi WSW 5.8 mph - N/A   Clear
6:35 PM 28.0 °F 22.8 °F 3.2 °F 35% 30.31 in 10.0 mi WSW 4.6 mph - N/A   Clear
6:55 PM 27.0 °F - 4.1 °F 38% 30.31 in 10.0 mi Calm Calm - N/A   Clear
7:15 PM 25.7 °F - 5.4 °F 42% 30.31 in 10.0 mi Calm Calm - N/A   Clear
7:35 PM 23.0 °F - 7.9 °F 52% 30.30 in 10.0 mi Calm Calm - N/A   Clear
7:55 PM 21.7 °F - 7.9 °F 55% 30.29 in 10.0 mi Calm Calm - N/A   Clear
8:15 PM 21.6 °F 16.8 °F 10.9 °F 64% 30.29 in 10.0 mi South 3.5 mph - N/A   Clear
8:35 PM 23.2 °F 18.7 °F 7.9 °F 52% 30.29 in 10.0 mi SSW 3.5 mph - N/A   Clear
8:55 PM 22.6 °F 16.5 °F 7.7 °F 53% 30.28 in 10.0 mi SSW 4.6 mph - N/A   Clear
9:15 PM 23.0 °F - 7.5 °F 52% 30.27 in 10.0 mi Calm Calm - N/A   Clear
9:35 PM 17.6 °F - 10.4 °F 73% 30.27 in 10.0 mi Calm Calm - N/A   Clear
9:55 PM 17.8 °F - 10.6 °F 73% 30.26 in 10.0 mi Calm Calm - N/A   Clear
10:15 PM 18.0 °F - 10.2 °F 72% 30.26 in 10.0 mi Calm Calm - N/A   Clear
10:35 PM 18.9 °F - 9.5 °F 67% 30.25 in 10.0 mi Calm Calm - N/A   Clear
10:55 PM 18.7 °F - 10.4 °F 70% 30.25 in 10.0 mi Calm Calm - N/A   Clear
11:15 PM 19.2 °F - 7.5 °F 60% 30.24 in 10.0 mi Calm Calm - N/A   Clear
11:35 PM 19.4 °F 14.3 °F 8.6 °F 63% 30.24 in 10.0 mi South 3.5 mph - N/A   Clear
11:55 PM 20.3 °F - 8.8 °F 61% 30.23 in 10.0 mi Calm Calm - N/A   Clear